{"data":{"norad_id":44408,"epoch":"2026-09-19T09:16:09.482304Z","epoch_age_seconds":157928,"freshness":"FRESH","line1":"1 44408U 19038Y   26262.38622086  .00061907  00000+0  40120-3 0  9996","line2":"2 44408  97.6630 316.9697 0005165  32.4612 327.6969 15.75838369401348","mean_motion":15.75838369,"eccentricity":0.0005165,"inclination_deg":97.663,"raan_deg":316.9697,"arg_perigee_deg":32.4612,"mean_anomaly_deg":327.6969,"bstar":0.0004012,"rev_number":40134,"period_min":91.379930094848,"perigee_km":338.77548466498,"apogee_km":345.71764088532,"semimajor_km":6720.3835627752,"source":"CELESTRAK","updated_at":"2026-09-20T09:00:14.527154Z"}}